Haines, AK

9:44 AM AKST on February 27, 2017 (GMT -0900)
Haines

Weather History for PAHN - October, 2012

Change the Weather History Date:

Monday, October 15, 2012

  Actual Average Record
Temperature  
Mean Temperature 42 °F -  
Max Temperature 46 °F 44 °F 55 °F (1991)
Min Temperature 39 °F 37 °F 21 °F (1992)
Degree Days  
Heating Degree Days 22    
Moisture  
Dew Point 42 °F    
Average Humidity 90    
Maximum Humidity 100    
Minimum Humidity 81    
Precipitation  
Precipitation 0.64 in - - ()
Sea Level Pressure  
Sea Level Pressure 29.18 in    
Wind  
Wind Speed 10 mph (East)    
Max Wind Speed 14 mph    
Max Gust Speed 28 mph    
Visibility 9 miles    
Events Rain    
Averages and records for this station are not official NWS values.
T = Trace of Precipitation, MM = Missing Value Source: NWS Daily Summary

Daily Weather History Graph

Daily Weather History Graph

Search for Another Location

Airport or City:

Trip Planner

Search our weather history database for the weather conditions in past years. The results will help you decide how hot, cold, wet, or windy it might be!

Date:

Astronomy

Oct. 15, 2012 Rise Set
Actual Time 7:41 AM AKDT 5:52 PM AKDT
Civil Twilight 7:00 AM AKDT 6:34 PM AKDT
Nautical Twilight 6:12 AM AKDT 7:21 PM AKDT
Astronomical Twilight 5:25 AM AKDT 8:08 PM AKDT
Moon 8:18 AM AKDT (10/15) 5:34 PM AKDT (10/15)
Length of Visible Light 11h 34m
Length of Day
10h 11m
New Moon, 0% of the Moon is Illuminated
Oct 15
New Moon
Oct 21
First Quarter
Oct 29
Full
Nov 6
Last Quarter
Nov 13
New

Hourly Weather History & Observations

Time (AKDT) Temp. Windchill Dew Point Humidity Pressure Visibility Wind Dir Wind Speed Gust Speed Precip Events Conditions
12:12 AM 44.6 °F 39.2 °F 42.8 °F 93% 29.17 in 6.0 mi East 10.4 mph 18.4 mph 0.01 in Rain Light Rain
12:54 AM 45.0 °F 40.1 °F 43.0 °F 93% 29.20 in 10.0 mi East 9.2 mph 24.2 mph 0.04 in Rain Light Rain
1:54 AM 45.0 °F 38.9 °F 44.1 °F 97% 29.22 in 10.0 mi East 12.7 mph 23.0 mph 0.01 in Rain Light Rain
2:54 AM 46.0 °F 40.6 °F 44.1 °F 93% 29.23 in 6.0 mi East 11.5 mph 27.6 mph 0.05 in Rain Rain
3:54 AM 46.0 °F 40.6 °F 44.1 °F 93% 29.24 in 10.0 mi East 11.5 mph 21.9 mph 0.02 in Rain Light Rain
4:14 AM 46.4 °F 40.4 °F 44.6 °F 93% 29.24 in 10.0 mi East 13.8 mph 23.0 mph 0.00 in Rain Light Rain
4:25 AM 46.4 °F 40.7 °F 44.6 °F 93% 29.25 in 7.0 mi East 12.7 mph 27.6 mph 0.01 in Rain Light Rain
4:54 AM 46.0 °F 40.2 °F 41.0 °F 83% 29.28 in 10.0 mi ESE 12.7 mph 23.0 mph 0.01 in   Mostly Cloudy
5:54 AM 44.1 °F 39.5 °F 41.0 °F 89% 29.30 in 10.0 mi East 8.1 mph - N/A   Mostly Cloudy
6:54 AM 45.0 °F 38.9 °F 42.1 °F 90% 29.28 in 10.0 mi ENE 12.7 mph 20.7 mph 0.00 in Rain Light Rain
7:22 AM 44.6 °F 40.2 °F 42.8 °F 93% 29.28 in 10.0 mi East 8.1 mph 17.3 mph 0.00 in   Mostly Cloudy
7:54 AM 45.0 °F 38.9 °F 41.0 °F 86% 29.29 in 10.0 mi East 12.7 mph 21.9 mph 0.00 in   Overcast
8:09 AM 44.6 °F 40.2 °F 41.0 °F 87% 29.28 in 10.0 mi East 8.1 mph 21.9 mph N/A   Overcast
8:47 AM 44.6 °F 39.7 °F 42.8 °F 93% 29.28 in 10.0 mi ESE 9.2 mph - N/A   Overcast
8:54 AM 45.0 °F 40.6 °F 42.1 °F 90% 29.29 in 10.0 mi East 8.1 mph 21.9 mph N/A   Overcast
9:54 AM 46.0 °F 41.4 °F 42.1 °F 86% 29.27 in 10.0 mi East 9.2 mph 20.7 mph 0.00 in   Overcast
10:34 AM 46.4 °F 41.5 °F 41.0 °F 81% 29.25 in 10.0 mi East 10.4 mph 17.3 mph N/A   Mostly Cloudy
10:54 AM 46.9 °F - 42.1 °F 83% 29.25 in 10.0 mi East 10.4 mph 18.4 mph N/A   Overcast
11:45 AM 46.4 °F 40.4 °F 42.8 °F 87% 29.23 in 10.0 mi East 13.8 mph 21.9 mph 0.00 in   Mostly Cloudy
11:54 AM 46.9 °F - 42.1 °F 83% 29.24 in 10.0 mi East 10.4 mph 21.9 mph 0.00 in   Mostly Cloudy
12:03 PM 46.4 °F 41.9 °F 42.8 °F 87% 29.22 in 10.0 mi East 9.2 mph 19.6 mph N/A   Mostly Cloudy
12:40 PM 46.4 °F 41.9 °F 42.8 °F 87% 29.21 in 10.0 mi ENE 9.2 mph - N/A   Overcast
12:54 PM 46.0 °F 41.4 °F 41.0 °F 83% 29.22 in 10.0 mi East 9.2 mph 17.3 mph N/A   Overcast
1:09 PM 46.4 °F 41.9 °F 42.8 °F 87% 29.20 in 10.0 mi East 9.2 mph 18.4 mph 0.00 in Rain Light Rain
1:16 PM 46.4 °F 42.4 °F 42.8 °F 87% 29.20 in 10.0 mi ENE 8.1 mph 18.4 mph 0.00 in Rain Light Rain
1:54 PM 45.0 °F 39.7 °F 41.0 °F 86% 29.19 in 10.0 mi ENE 10.4 mph 19.6 mph 0.01 in Rain Light Rain
2:54 PM 44.1 °F 39.5 °F 41.0 °F 89% 29.16 in 8.0 mi ENE 8.1 mph - 0.06 in Rain Light Rain
3:11 PM 44.6 °F 42.2 °F 39.2 °F 81% 29.14 in 6.0 mi East 4.6 mph - 0.02 in Rain Rain
3:54 PM 43.0 °F 40.3 °F 41.0 °F 93% 29.12 in 7.0 mi East 4.6 mph - 0.07 in Rain Rain
4:54 PM 42.1 °F 39.2 °F 41.0 °F 96% 29.09 in 6.0 mi East 4.6 mph - 0.07 in Rain Light Rain
5:31 PM 42.8 °F 39.3 °F 41.0 °F 93% 29.07 in 6.0 mi East 5.8 mph - 0.06 in Rain Rain
5:54 PM 42.1 °F 38.4 °F 41.0 °F 96% 29.08 in 7.0 mi ESE 5.8 mph - 0.10 in Rain Rain
6:43 PM 41.0 °F 37.1 °F 39.2 °F 93% 29.06 in 6.0 mi East 5.8 mph - 0.09 in Rain Rain
6:54 PM 41.0 °F 37.1 °F 39.9 °F 96% 29.06 in 6.0 mi East 5.8 mph - 0.11 in Rain Rain
7:54 PM 41.0 °F 36.4 °F 39.0 °F 93% 29.04 in 10.0 mi East 6.9 mph - 0.04 in Rain Light Rain
8:41 PM 41.0 °F 36.4 °F 39.2 °F 93% 29.04 in 10.0 mi ESE 6.9 mph - 0.03 in Rain Light Rain
8:54 PM 41.0 °F 36.4 °F 39.0 °F 93% 29.05 in 10.0 mi ESE 6.9 mph - 0.04 in Rain Light Rain
9:54 PM 41.0 °F 36.4 °F 39.0 °F 93% 29.04 in 10.0 mi East 6.9 mph - 0.00 in Rain Light Rain
10:18 PM 39.2 °F 35.0 °F 39.2 °F 100% 29.04 in 10.0 mi East 5.8 mph - 0.00 in Rain Light Rain
10:54 PM 41.0 °F 38.0 °F 39.9 °F 96% 29.06 in 10.0 mi East 4.6 mph - 0.00 in Rain Light Rain
11:54 PM 41.0 °F 39.0 °F 39.9 °F 96% 29.06 in 10.0 mi East 3.5 mph - 0.01 in   Overcast